Regional Weather Roundup
Issued by NWS

Home | Current Version | Previous Version | Text Only | Print | Product List | Glossary On
Versions: 1 2 3 4 5 6 7 8 9 10 11 12 13 14 15 16 17 18 19 20 21 22 23 24 25 26 27
000
ASUS44 KLIX 282011
RWRLA
LOUISIANA WEATHER ROUNDUP
NATIONAL WEATHER SERVICE NEW ORLEANS LA
300 PM CDT SAT MAY 28 2016

NOTE: "FAIR" INDICATES FEW OR NO CLOUDS BELOW 12,000 FEET WITH NO
      SIGNIFICANT WEATHER AND/OR OBSTRUCTIONS TO VISIBILITY.
      SKY/WX - SKY CONDITION AND SIGNIFICANT WEATHER.
      TMP - AIR TEMPERATURE.    DP   - DEWPOINT TEMPERATURE.
      RH  - RELATIVE HUMIDITY.  PRES - PRESSURE.
      HX  - HEAT INDEX.         WCI  - WIND CHILL INDEX.

*  THESE STATIONS ARE NOT NWS OR FAA STATIONS AND ARE NOT UNDER
   NWS QUALITY CONTROL.

LAZ040-048-061>063-065-066-069-282100-
SOUTHEAST LOUISIANA

CITY           SKY/WX    TMP DP  RH WIND       PRES   REMARKS
N.O. AUDUBON   NOT AVBL
N.O. INTL ARPT TSTM      78  68  71 N14G20    30.03R
N.O. LAKEFRONT LGT RAIN  76  70  82 E12       30.05R
N.O. DOWNTOWN* FAIR      77  70  79 VRB7      30.03F THUNDER
RESERVE*       FAIR      84  74  70 NE8       30.01F
SLIDELL        CLOUDY    74  69  85 CALM      30.04S
BATON ROUGE    MOSUNNY   86  68  54 E8        30.01F
BOOTHVILLE     CLOUDY    82  72  71 S9        30.02F
BELLE CHASSE   PTSUNNY   75  71  87 NE10G17   30.01F THUNDER
BOGALUSA*      FAIR      83  67  58 S3        30.05S
GALLIANO*      CLOUDY    87  71  58 S9        30.01F
NEW ROADS*     FAIR      85  68  57 SE6       30.02S
GONZALES*      HVY RAIN  82  73  74 E5        30.00S
HAMMOND*       CLOUDY    86  64  48 SE8       30.02S
HOUMA*         MOSUNNY   84  73  70 SE9       30.01F
PORT FOURCHON* PTCLDY    82  72  69 S8        30.02F

$$

LAZ041-044-053-054-282100-
SOUTHWEST LOUISIANA

CITY           SKY/WX    TMP DP  RH WIND       PRES   REMARKS
LAKE CHARLES   PTSUNNY   85  70  60 SW8       30.00S
LAFAYETTE      CLOUDY    86  67  52 S10       30.00S
PATTERSON      MOSUNNY   87  71  58 S15       30.01
SALT POINT       N/A     84  72  67 VRB6      30.00S
NEW IBERIA     MOSUNNY   86  68  54 S13       30.01S
CHENAULT AIRPK MOSUNNY  N/A N/A N/A S9          N/A

$$

LAZ027-028-282100-
CENTRAL LOUISIANA

CITY           SKY/WX    TMP DP  RH WIND       PRES   REMARKS
FORT POLK      PTSUNNY   86  73  66 SE7       29.99S
ALEXANDRIA INT CLOUDY    84  71  65 S6        29.98S
ALEXANDRIA     PTSUNNY   87  70  56 CALM      30.00F

$$

LAZ001-002-282100-
NORTHWEST LOUISIANA

CITY           SKY/WX    TMP DP  RH WIND       PRES   REMARKS
SHREVEPORT     PTSUNNY   85  69  58 CALM      29.98S
BARKSDALE AFB  MOSUNNY   86  68  55 VRB3      29.99S
DTN SHREVEPORT MOSUNNY   84  70  62 NE6       29.99S

$$

LAZ014-016-282100-
NORTHEAST LOUISIANA

CITY           SKY/WX    TMP DP  RH WIND       PRES   REMARKS
MONROE         PTSUNNY   84  68  58 S3        30.01S
TALLULAH       CLOUDY    87  67  51 SE10      30.01F

$$





USA.gov is the U.S. government's official web portal to all federal, state and local government web resources and services.